Showing default

FLOCK 4Q 29, 58304

Orbit data source: Space-Track

FLOCK 4Q 29, 58304 is a payload satellite owned by Planet (US) in SSO that was launched on Sat, 11 Nov 2023 UTC via an FALCON 9 launch vehicle from the Air Force Western Test Range (AFWTR). Payload-class satellites include a variety of spacecraft equipped with specific instruments for various scientific and technological missions. These include communications satellites like Starlink; space stations such as the ISS; scientific satellites like the Hubble; Earth observation satellites from companies like Planet Labs, Umbra, and HawkEye 360; GPS; miniature CubeSats for education and research; and military/defense satellites.

Loading next visibility...
Identifier
58304, 2023-174BA
Orbit
SSO
Country
Flag of USUS
Related business
Manufacturer
Planet
Mission
Operational Commercial Imaging
Bus & Motor
CUBESAT 3U, Unknown motor
Mass
5.7 kg wet, 5.7 kg dry
Launch date (UTC)
2023-11-11 (2 years ago)
Launch vehicle
FALCON 9
Launch site
Air Force Western Test Range (AFWTR)
Object type
Payload
Rocket body
Debris
Shape & HBR
Box + 2 Pan, 1.0 m
Radar Cross Section
0.072 m², Medium (>0.1 m² and < 1m²)

Expand to show TLE details & history
Last TLE update: 11 hours ago

TLE from 11 hours ago
0 FLOCK 4Q 29
1 58304U 23174BA  25288.99749326  .00027746  00000-0  69417-3 0  9997
2 58304  97.4122  10.0205 0006730 301.2320  58.8266 15.40054259107987
Epoch: 2025-10-15T23:56Z
TLE epoch observation values (Epoch: 2025-10-15T23:56:23.417Z)
Latitude
-0.00004°
Longitude
-13.84061°
Altitude
446.691 km
Speed
7.645 km/s
True Right ascension
00h 40m 04s
True Declination
0° 00' 00"
Sunlit
Object was in full shadow at epoch
Visualization orbit readout
Latitude
Unknown
Longitude
Unknown
Altitude
Unknown
Speed
Unknown
Apparent Right ascension
Unknown
Apparent Declination
Unknown
Sunlit
N/A
Visualization observer readout
Local Sidereal Time
05:39:23
Azimuth
Unknown
Elevation
Unknown
Doppler factor
Unknown
Orbital elements
Apogee altitude
447.479 km
Perigee altitude
438.298 km
Semi-major axis
6,821.025 km
Eccentricity
0.00067
Inclination
97.4122°
RAAN
10.0205°
Arg. of periapsis
301.232°
True anomaly
58.89261°
Mean anomaly
58.8266°
Eccentric anomaly
58.8596°
Mean motion
3.85273 °/min
Orbital period
93.44 mins
BSTAR
0.00069417
Loading maneuver chart data...
Computing Atmospheric mass density...

Documentation

Showing up to 5 results
|